Time,TemperatureF,DewpointF,PressureIn,WindDirection,WindDirectionDegrees,WindSpeedMPH,WindSpeedGustMPH,Humidity,HourlyPrecipIn,Conditions,Clouds,dailyrainin,SoftwareType,DateUTC
2013-03-03 00:02:00,15.0,13.0,-100.00,West,265,0.0,0.0,88,0.00,,,-99.99,,2013-03-03 06:02:00,
2013-03-03 00:11:00,16.0,13.0,-100.00,West,265,0.0,0.0,89,0.00,,,-99.99,,2013-03-03 06:11:00,
2013-03-03 00:21:00,16.0,14.0,-100.00,SE,130,2.0,4.0,89,0.00,,,-99.99,,2013-03-03 06:21:00,
2013-03-03 00:31:00,17.0,14.0,-100.00,SE,130,2.0,2.0,89,0.00,,,-99.99,,2013-03-03 06:31:00,
2013-03-03 00:42:00,17.0,15.0,-100.00,SSE,155,2.0,4.0,89,0.00,,,-99.99,,2013-03-03 06:42:00,
2013-03-03 00:52:00,17.0,15.0,-100.00,SE,125,1.0,2.0,89,0.00,,,-99.99,,2013-03-03 06:52:00,
2013-03-03 01:01:00,17.0,15.0,-100.00,SE,125,1.0,2.0,89,0.00,,,-99.99,,2013-03-03 07:01:00,
2013-03-03 01:11:00,17.0,15.0,-100.00,SE,125,0.0,0.0,89,0.00,,,-99.99,,2013-03-03 07:11:00,
2013-03-03 01:21:00,17.0,15.0,-100.00,SE,125,0.0,1.0,89,0.00,,,-99.99,,2013-03-03 07:21:00,
2013-03-03 01:31:00,17.0,15.0,-100.00,SE,125,0.0,0.0,89,0.00,,,-99.99,,2013-03-03 07:31:00,
2013-03-03 01:42:00,18.0,15.0,-100.00,SE,125,0.0,0.0,89,0.00,,,-99.99,,2013-03-03 07:42:00,
2013-03-03 01:51:00,18.0,15.0,-100.00,SE,125,0.0,0.0,89,0.00,,,-99.99,,2013-03-03 07:51:00,
2013-03-03 02:01:00,18.0,15.0,-100.00,SE,125,0.0,0.0,89,0.00,,,-99.99,,2013-03-03 08:01:00,
2013-03-03 02:11:00,18.0,16.0,-100.00,East,95,0.0,1.0,89,0.00,,,-99.99,,2013-03-03 08:11:00,
2013-03-03 02:21:00,18.0,16.0,-100.00,East,95,0.0,0.0,89,0.00,,,-99.99,,2013-03-03 08:21:00,
2013-03-03 02:31:00,19.0,16.0,-100.00,SE,125,1.0,1.0,89,0.00,,,-99.99,,2013-03-03 08:31:00,
2013-03-03 02:41:00,19.0,17.0,-100.00,SE,125,1.0,2.0,89,0.00,,,-99.99,,2013-03-03 08:41:00,
2013-03-03 02:53:00,19.0,17.0,-100.00,SE,145,4.0,4.0,89,0.00,,,-99.99,,2013-03-03 08:53:00,
2013-03-03 03:01:00,19.0,17.0,-100.00,SE,145,4.0,4.0,89,0.00,,,-99.99,,2013-03-03 09:01:00,
2013-03-03 03:11:00,19.0,16.0,-100.00,SE,145,2.0,4.0,89,0.00,,,-99.99,,2013-03-03 09:11:00,
2013-03-03 03:21:00,19.0,16.0,-100.00,SE,130,2.0,3.0,89,0.00,,,-99.99,,2013-03-03 09:21:00,
2013-03-03 03:32:00,19.0,16.0,-100.00,SE,145,1.0,3.0,89,0.00,,,-99.99,,2013-03-03 09:32:00,
2013-03-03 03:41:00,19.0,16.0,-100.00,SE,145,1.0,1.0,89,0.00,,,-99.99,,2013-03-03 09:41:00,
2013-03-03 03:51:00,19.0,17.0,-100.00,SE,145,0.0,2.0,89,0.00,,,-99.99,,2013-03-03 09:51:00,
2013-03-03 04:01:00,19.0,17.0,-100.00,SE,145,0.0,2.0,89,0.00,,,-99.99,,2013-03-03 10:01:00,
2013-03-03 04:11:00,19.0,17.0,-100.00,ESE,110,2.0,4.0,89,0.00,,,-99.99,,2013-03-03 10:11:00,
2013-03-03 04:21:00,20.0,17.0,-100.00,SE,130,2.0,4.0,89,0.00,,,-99.99,,2013-03-03 10:21:00,
2013-03-03 04:32:00,20.0,17.0,-100.00,SE,125,2.0,4.0,89,0.00,,,-99.99,,2013-03-03 10:32:00,
2013-03-03 04:42:00,20.0,17.0,-100.00,SE,140,1.0,3.0,88,0.00,,,-99.99,,2013-03-03 10:42:00,
2013-03-03 04:52:00,20.0,17.0,-100.00,ESE,110,2.0,2.0,88,0.00,,,-99.99,,2013-03-03 10:52:00,
2013-03-03 05:01:00,20.0,17.0,-100.00,ESE,110,2.0,2.0,88,0.00,,,-99.99,,2013-03-03 11:01:00,
2013-03-03 05:11:00,20.0,17.0,-100.00,ESE,115,2.0,3.0,87,0.00,,,-99.99,,2013-03-03 11:11:00,
2013-03-03 05:21:00,20.0,17.0,-100.00,ESE,110,1.0,3.0,87,0.00,,,-99.99,,2013-03-03 11:21:00,
2013-03-03 05:32:00,20.0,17.0,-100.00,SE,130,2.0,3.0,87,0.00,,,-99.99,,2013-03-03 11:32:00,
2013-03-03 05:42:00,20.0,17.0,-100.00,SSE,160,2.0,4.0,87,0.00,,,-99.99,,2013-03-03 11:42:00,
2013-03-03 05:52:00,20.0,17.0,-100.00,SE,135,3.0,4.0,86,0.00,,,-99.99,,2013-03-03 11:52:00,
2013-03-03 06:01:00,20.0,17.0,-100.00,SE,135,3.0,4.0,86,0.00,,,-99.99,,2013-03-03 12:01:00,
2013-03-03 06:11:00,21.0,17.0,-100.00,ESE,105,3.0,6.0,85,0.00,,,-99.99,,2013-03-03 12:11:00,
2013-03-03 06:21:00,21.0,17.0,-100.00,ESE,120,3.0,6.0,85,0.00,,,-99.99,,2013-03-03 12:21:00,
2013-03-03 06:32:00,21.0,17.0,-100.00,ESE,110,4.0,5.0,84,0.00,,,-99.99,,2013-03-03 12:32:00,
2013-03-03 06:42:00,21.0,17.0,-100.00,SE,130,2.0,6.0,83,0.00,,,-99.99,,2013-03-03 12:42:00,
2013-03-03 06:52:00,21.0,17.0,-100.00,SE,145,2.0,4.0,82,0.00,,,-99.99,,2013-03-03 12:52:00,
2013-03-03 07:01:00,21.0,17.0,-100.00,SE,145,2.0,4.0,82,0.00,,,-99.99,,2013-03-03 13:01:00,
2013-03-03 07:11:00,21.0,17.0,-100.00,ESE,115,4.0,6.0,81,0.00,,,-99.99,,2013-03-03 13:11:00,
2013-03-03 07:21:00,21.0,17.0,-100.00,SE,140,4.0,6.0,81,0.00,,,-99.99,,2013-03-03 13:21:00,
2013-03-03 07:32:00,21.0,17.0,-100.00,SE,125,4.0,6.0,80,0.00,,,-99.99,,2013-03-03 13:32:00,
2013-03-03 07:42:00,22.0,17.0,-100.00,SE,140,4.0,6.0,80,0.00,,,-99.99,,2013-03-03 13:42:00,
2013-03-03 07:51:00,22.0,17.0,-100.00,SE,125,4.0,6.0,79,0.00,,,-99.99,,2013-03-03 13:51:00,
2013-03-03 08:02:00,22.0,17.0,-100.00,SE,125,4.0,6.0,79,0.00,,,-99.99,,2013-03-03 14:02:00,
2013-03-03 08:11:00,23.0,17.0,-100.00,ESE,115,4.0,6.0,78,0.00,,,-99.99,,2013-03-03 14:11:00,
2013-03-03 08:21:00,23.0,17.0,-100.00,ESE,110,5.0,7.0,77,0.00,,,-99.99,,2013-03-03 14:21:00,
2013-03-03 08:32:00,23.0,17.0,-100.00,ESE,110,6.0,7.0,77,0.00,,,-99.99,,2013-03-03 14:32:00,
2013-03-03 08:42:00,23.0,17.0,-100.00,ESE,110,6.0,7.0,75,0.00,,,-99.99,,2013-03-03 14:42:00,
2013-03-03 08:52:00,24.0,17.0,-100.00,ESE,105,7.0,7.0,73,0.00,,,-99.99,,2013-03-03 14:52:00,
2013-03-03 09:01:00,24.0,17.0,-100.00,ESE,105,7.0,7.0,73,0.00,,,-99.99,,2013-03-03 15:01:00,
2013-03-03 09:11:00,26.0,18.0,-100.00,ESE,115,4.0,6.0,70,0.00,,,-99.99,,2013-03-03 15:11:00,
2013-03-03 09:22:00,27.0,18.0,-100.00,ESE,110,5.0,6.0,69,0.00,,,-99.99,,2013-03-03 15:22:00,
2013-03-03 09:32:00,27.0,18.0,-100.00,ESE,110,6.0,7.0,67,0.00,,,-99.99,,2013-03-03 15:32:00,
2013-03-03 09:42:00,28.0,17.0,-100.00,ESE,105,7.0,9.0,63,0.00,,,-99.99,,2013-03-03 15:42:00,
2013-03-03 09:51:00,29.0,17.0,-100.00,SE,125,6.0,9.0,61,0.00,,,-99.99,,2013-03-03 15:51:00,
2013-03-03 10:01:00,29.0,17.0,-100.00,SE,125,6.0,9.0,61,0.00,,,-99.99,,2013-03-03 16:01:00,
2013-03-03 10:12:00,29.0,17.0,-100.00,ESE,115,7.0,9.0,58,0.00,,,-99.99,,2013-03-03 16:12:00,
2013-03-03 10:21:00,30.0,17.0,-100.00,ESE,105,8.0,10.0,57,0.00,,,-99.99,,2013-03-03 16:21:00,
2013-03-03 10:32:00,30.0,16.0,-100.00,ESE,110,8.0,10.0,56,0.00,,,-99.99,,2013-03-03 16:32:00,
2013-03-03 10:42:00,31.0,17.0,-100.00,ESE,105,7.0,10.0,55,0.00,,,-99.99,,2013-03-03 16:42:00,
2013-03-03 10:52:00,33.0,17.0,-100.00,ESE,110,6.0,11.0,52,0.00,,,-99.99,,2013-03-03 16:52:00,
2013-03-03 11:01:00,33.0,17.0,-100.00,ESE,110,6.0,11.0,52,0.00,,,-99.99,,2013-03-03 17:01:00,
2013-03-03 11:11:00,35.0,18.0,-100.00,ESE,115,7.0,9.0,49,0.00,,,-99.99,,2013-03-03 17:11:00,
2013-03-03 11:22:00,35.0,17.0,-100.00,SE,130,9.0,11.0,48,0.00,,,-99.99,,2013-03-03 17:22:00,
2013-03-03 11:32:00,35.0,17.0,-100.00,SE,135,9.0,12.0,47,0.00,,,-99.99,,2013-03-03 17:32:00,
2013-03-03 11:42:00,34.0,16.0,-100.00,ESE,115,9.0,11.0,47,0.00,,,-99.99,,2013-03-03 17:42:00,
2013-03-03 11:52:00,34.0,16.0,-100.00,ESE,105,9.0,12.0,47,0.00,,,-99.99,,2013-03-03 17:52:00,
2013-03-03 12:01:00,34.0,16.0,-100.00,ESE,105,9.0,12.0,47,0.00,,,-99.99,,2013-03-03 18:01:00,
2013-03-03 12:11:00,33.0,16.0,-100.00,ESE,110,9.0,14.0,48,0.00,,,-99.99,,2013-03-03 18:11:00,
2013-03-03 12:21:00,33.0,16.0,-100.00,ESE,115,7.0,14.0,48,0.00,,,-99.99,,2013-03-03 18:21:00,
2013-03-03 12:32:00,34.0,16.0,-100.00,SE,125,9.0,14.0,46,0.00,,,-99.99,,2013-03-03 18:32:00,
2013-03-03 12:42:00,35.0,16.0,-100.00,SE,130,12.0,17.0,45,0.00,,,-99.99,,2013-03-03 18:42:00,
2013-03-03 12:52:00,35.0,17.0,-100.00,SE,145,7.0,15.0,45,0.00,,,-99.99,,2013-03-03 18:52:00,
2013-03-03 13:01:00,35.0,17.0,-100.00,SE,145,7.0,15.0,45,0.00,,,-99.99,,2013-03-03 19:01:00,
2013-03-03 13:11:00,37.0,17.0,-100.00,SE,140,10.0,14.0,44,0.00,,,-99.99,,2013-03-03 19:11:00,
2013-03-03 13:21:00,36.0,16.0,-100.00,ESE,115,9.0,14.0,44,0.00,,,-99.99,,2013-03-03 19:21:00,
2013-03-03 13:32:00,36.0,17.0,-100.00,SE,145,11.0,12.0,44,0.00,,,-99.99,,2013-03-03 19:32:00,
2013-03-03 13:42:00,36.0,17.0,-100.00,SE,135,11.0,15.0,43,0.00,,,-99.99,,2013-03-03 19:42:00,
2013-03-03 13:51:00,36.0,17.0,-100.00,SE,130,9.0,13.0,43,0.00,,,-99.99,,2013-03-03 19:51:00,
2013-03-03 14:01:00,36.0,17.0,-100.00,SE,130,9.0,13.0,43,0.00,,,-99.99,,2013-03-03 20:01:00,
2013-03-03 14:11:00,36.0,16.0,-100.00,SE,145,8.0,12.0,43,0.00,,,-99.99,,2013-03-03 20:11:00,
2013-03-03 14:21:00,36.0,17.0,-100.00,SE,140,7.0,14.0,44,0.00,,,-99.99,,2013-03-03 20:21:00,
2013-03-03 14:32:00,36.0,17.0,-100.00,SE,130,7.0,14.0,44,0.00,,,-99.99,,2013-03-03 20:32:00,
2013-03-03 14:42:00,35.0,17.0,-100.00,SE,145,7.0,13.0,45,0.00,,,-99.99,,2013-03-03 20:42:00,
2013-03-03 14:52:00,35.0,16.0,-100.00,ESE,110,9.0,14.0,46,0.00,,,-99.99,,2013-03-03 20:52:00,
2013-03-03 15:02:00,35.0,16.0,-100.00,ESE,110,9.0,14.0,46,0.00,,,-99.99,,2013-03-03 21:02:00,
2013-03-03 15:11:00,34.0,16.0,-100.00,ESE,120,11.0,14.0,47,0.00,,,-99.99,,2013-03-03 21:11:00,
2013-03-03 15:21:00,34.0,17.0,-100.00,ESE,115,10.0,14.0,47,0.00,,,-99.99,,2013-03-03 21:21:00,
2013-03-03 15:32:00,34.0,16.0,-100.00,ESE,105,12.0,16.0,47,0.00,,,-99.99,,2013-03-03 21:32:00,
2013-03-03 15:41:00,34.0,16.0,-100.00,ESE,115,11.0,16.0,46,0.00,,,-99.99,,2013-03-03 21:41:00,
2013-03-03 15:52:00,34.0,15.0,-100.00,ESE,110,11.0,16.0,46,0.00,,,-99.99,,2013-03-03 21:52:00,
2013-03-03 16:01:00,34.0,15.0,-100.00,ESE,110,11.0,16.0,46,0.00,,,-99.99,,2013-03-03 22:01:00,
2013-03-03 16:11:00,34.0,16.0,-100.00,ESE,115,8.0,14.0,47,0.00,,,-99.99,,2013-03-03 22:11:00,
2013-03-03 16:22:00,34.0,17.0,-100.00,ESE,110,8.0,13.0,48,0.00,,,-99.99,,2013-03-03 22:22:00,
2013-03-03 16:32:00,34.0,17.0,-100.00,ESE,120,9.0,14.0,48,0.00,,,-99.99,,2013-03-03 22:32:00,
2013-03-03 16:42:00,34.0,17.0,-100.00,ESE,110,10.0,14.0,48,0.00,,,-99.99,,2013-03-03 22:42:00,
2013-03-03 16:52:00,34.0,17.0,-100.00,ESE,120,7.0,12.0,48,0.00,,,-99.99,,2013-03-03 22:52:00,
2013-03-03 17:01:00,34.0,17.0,-100.00,ESE,120,7.0,12.0,48,0.00,,,-99.99,,2013-03-03 23:01:00,
2013-03-03 17:11:00,34.0,18.0,-100.00,SE,135,7.0,12.0,49,0.00,,,-99.99,,2013-03-03 23:11:00,
2013-03-03 17:21:00,34.0,17.0,-100.00,SE,135,7.0,12.0,49,0.00,,,-99.99,,2013-03-03 23:21:00,
2013-03-03 17:32:00,33.0,17.0,-100.00,ESE,110,10.0,15.0,50,0.00,,,-99.99,,2013-03-03 23:32:00,
2013-03-03 17:41:00,33.0,17.0,-100.00,ESE,115,9.0,15.0,51,0.00,,,-99.99,,2013-03-03 23:41:00,
2013-03-03 17:52:00,33.0,16.0,-100.00,ESE,110,12.0,16.0,50,0.00,,,-99.99,,2013-03-03 23:52:00,
2013-03-03 18:01:00,33.0,16.0,-100.00,ESE,110,12.0,16.0,50,0.00,,,-99.99,,2013-03-04 00:01:00,
2013-03-03 18:11:00,33.0,15.0,-100.00,ESE,110,12.0,19.0,48,0.00,,,-99.99,,2013-03-04 00:11:00,
2013-03-03 18:21:00,32.0,15.0,-100.00,ESE,120,13.0,20.0,48,0.00,,,-99.99,,2013-03-04 00:21:00,
2013-03-03 18:32:00,32.0,15.0,-100.00,ESE,115,10.0,16.0,49,0.00,,,-99.99,,2013-03-04 00:32:00,
2013-03-03 18:42:00,32.0,16.0,-100.00,ESE,115,7.0,19.0,50,0.00,,,-99.99,,2013-03-04 00:42:00,
2013-03-03 18:52:00,32.0,16.0,-100.00,SE,125,9.0,12.0,51,0.00,,,-99.99,,2013-03-04 00:52:00,
2013-03-03 19:01:00,32.0,17.0,-100.00,ESE,115,10.0,14.0,52,0.00,,,-99.99,,2013-03-04 01:01:00,
2013-03-03 19:11:00,32.0,17.0,-100.00,ESE,120,7.0,12.0,54,0.00,,,-99.99,,2013-03-04 01:11:00,
2013-03-03 19:21:00,32.0,18.0,-100.00,ESE,115,9.0,12.0,55,0.00,,,-99.99,,2013-03-04 01:21:00,
2013-03-03 19:32:00,32.0,18.0,-100.00,ESE,110,10.0,15.0,56,0.00,,,-99.99,,2013-03-04 01:32:00,
2013-03-03 19:42:00,32.0,19.0,-100.00,ESE,110,9.0,16.0,59,0.00,,,-99.99,,2013-03-04 01:42:00,
2013-03-03 19:51:00,31.0,19.0,-100.00,ESE,120,7.0,14.0,60,0.00,,,-99.99,,2013-03-04 01:51:00,
2013-03-03 20:01:00,31.0,19.0,-100.00,ESE,120,7.0,14.0,60,0.00,,,-99.99,,2013-03-04 02:01:00,
2013-03-03 20:11:00,31.0,20.0,-100.00,ESE,110,10.0,14.0,61,0.00,,,-99.99,,2013-03-04 02:11:00,
2013-03-03 20:22:00,31.0,20.0,-100.00,ESE,105,9.0,15.0,62,0.00,,,-99.99,,2013-03-04 02:22:00,
2013-03-03 20:32:00,31.0,20.0,-100.00,ESE,115,10.0,15.0,62,0.00,,,-99.99,,2013-03-04 02:32:00,
2013-03-03 20:42:00,31.0,20.0,-100.00,East,100,11.0,15.0,63,0.00,,,-99.99,,2013-03-04 02:42:00,
2013-03-03 20:52:00,31.0,20.0,-100.00,ESE,115,7.0,14.0,63,0.00,,,-99.99,,2013-03-04 02:52:00,
2013-03-03 21:01:00,31.0,20.0,-100.00,ESE,115,7.0,14.0,63,0.00,,,-99.99,,2013-03-04 03:01:00,
2013-03-03 21:11:00,31.0,20.0,-100.00,ESE,110,9.0,13.0,63,0.00,,,-99.99,,2013-03-04 03:11:00,
2013-03-03 21:21:00,31.0,20.0,-100.00,ESE,105,12.0,15.0,62,0.00,,,-99.99,,2013-03-04 03:21:00,
2013-03-03 21:32:00,31.0,20.0,-100.00,East,100,10.0,14.0,62,0.00,,,-99.99,,2013-03-04 03:32:00,
2013-03-03 21:42:00,31.0,19.0,-100.00,ESE,110,10.0,14.0,60,0.00,,,-99.99,,2013-03-04 03:42:00,
2013-03-03 21:52:00,31.0,19.0,-100.00,East,100,7.0,13.0,60,0.00,,,-99.99,,2013-03-04 03:52:00,
2013-03-03 22:01:00,31.0,19.0,-100.00,East,100,7.0,13.0,60,0.00,,,-99.99,,2013-03-04 04:01:00,
2013-03-03 22:11:00,31.0,19.0,-100.00,ESE,115,7.0,13.0,60,0.00,,,-99.99,,2013-03-04 04:11:00,
2013-03-03 22:22:00,31.0,19.0,-100.00,East,100,9.0,14.0,59,0.00,,,-99.99,,2013-03-04 04:22:00,
2013-03-03 22:32:00,31.0,19.0,-100.00,East,100,9.0,16.0,59,0.00,,,-99.99,,2013-03-04 04:32:00,
2013-03-03 22:42:00,31.0,19.0,-100.00,ESE,105,9.0,14.0,60,0.00,,,-99.99,,2013-03-04 04:42:00,
2013-03-03 22:51:00,31.0,19.0,-100.00,ESE,105,9.0,13.0,60,0.00,,,-99.99,,2013-03-04 04:51:00,
2013-03-03 23:01:00,31.0,19.0,-100.00,ESE,105,9.0,13.0,60,0.00,,,-99.99,,2013-03-04 05:01:00,
2013-03-03 23:11:00,31.0,18.0,-100.00,SE,125,7.0,12.0,58,0.00,,,-99.99,,2013-03-04 05:11:00,
2013-03-03 23:22:00,31.0,18.0,-100.00,SE,130,7.0,12.0,58,0.00,,,-99.99,,2013-03-04 05:22:00,
2013-03-03 23:31:00,31.0,18.0,-100.00,ESE,110,9.0,12.0,58,0.00,,,-99.99,,2013-03-04 05:31:00,
2013-03-03 23:42:00,31.0,18.0,-100.00,ESE,120,7.0,12.0,59,0.00,,,-99.99,,2013-03-04 05:42:00,
2013-03-03 23:52:00,31.0,19.0,-100.00,ESE,110,10.0,13.0,60,0.00,,,-99.99,,2013-03-04 05:52:00,